Rochester, MN
on Thursday, November 15, 2012

Thursday
Previous Day Next Day
Daily Summary
 ActualAverageRecord
Temperature
Mean Temperature °F 34°F  
Max Temperature 53°F 42°F 67°F (1953)
Min Temperature 31°F 27°F -5°F (1915)
Degree Days
Heating Degree Days 23 31  
Month to date heating degree days 357 404  
Since 1 July heating degree days 1022 1140  
Cooling Degree Days 0 0  
Month to date cooling degree days 0 0  
Year to date cooling degree days 888 585  
Moisture
Dew Point 29°F   
Average Humidity 58    
Maximum Humidity 70    
Minimum Humidity 46    
Precipitation
Precipitation 0.00 in 0.07 in 0.98 in (1988)
Month to date precipitation 0.51 0.99  
Year to date precipitation 23.06 30.87  
Snow
Snow 0.00 in 0.20 in 5.00 in (1911)
Month to date snowfall 0.1 2.0  
Since 1 July snowfall 0.1 2.8  
Snow Depth 0.00 in   
Wind
Wind Speed 11 mph   
Max Wind Speed 16 mph   
Max Gust Speed 20 mph   
Visibility 10 miles   
Events     

Key: T is trace of precipitation, MM is missing value
Source: NWS Daily Summary
Time(CST)TemperatureDew PointHumidity Pressure Visibility Wind DirectionWind SpeedGust SpeedPrecipitationEvents Conditions
12:54 AM 42.1°F 28.9°F 60% 30.22 in 10.0 miles South 13.8 mph - N/A   Overcast
1:54 AM 42.1°F 28.9°F 60% 30.22 in 10.0 miles South 12.7 mph - N/A   Overcast
2:54 AM 42.1°F 28.9°F 60% 30.21 in 10.0 miles South 11.5 mph - N/A   Overcast
3:54 AM 41.0°F 28.9°F 62% 30.20 in 10.0 miles South 13.8 mph - N/A   Mostly Cloudy
4:54 AM 39.9°F 28.0°F 63% 30.19 in 10.0 miles South 12.7 mph - N/A   Mostly Cloudy
5:54 AM 39.0°F 28.0°F 65% 30.20 in 10.0 miles South 11.5 mph - N/A   Mostly Cloudy
6:54 AM 37.0°F 28.0°F 70% 30.22 in 10.0 miles South 10.4 mph - N/A   Mostly Cloudy
7:54 AM 37.0°F 28.0°F 70% 30.23 in 10.0 miles South 9.2 mph - N/A   Clear
8:54 AM 42.1°F 30.0°F 62% 30.23 in 10.0 miles SSW 13.8 mph - N/A   Clear
9:54 AM 46.4°F 30.2°F 53% 30.22 in 10.0 miles WSW 12.7 mph - N/A   Clear
10:54 AM 46.9°F 32.0°F 56% 30.26 in 10.0 miles WSW 8.1 mph - N/A   Clear
11:54 AM 50.0°F 33.1°F 52% 30.25 in 10.0 miles West 8.1 mph - N/A   Clear
12:54 PM 53.1°F 34.0°F 48% 30.25 in 10.0 miles Variable 5.8 mph - N/A   Clear
1:54 PM 53.1°F 33.1°F 47% 30.26 in 10.0 miles WNW 10.4 mph - N/A   Clear
2:54 PM 53.1°F 34.0°F 48% 30.27 in 10.0 miles NW 12.7 mph - N/A   Clear
3:54 PM 51.1°F 34.0°F 52% 30.30 in 10.0 miles NW 9.2 mph - N/A   Clear
4:54 PM 45.0°F 32.0°F 60% 30.32 in 10.0 miles NW 8.1 mph - N/A   Clear
5:54 PM 43.0°F 32.0°F 65% 30.35 in 10.0 miles NW 11.5 mph - N/A   Clear
6:54 PM 39.9°F 30.0°F 68% 30.38 in 10.0 miles NW 10.4 mph - N/A   Clear
7:54 PM 37.0°F 28.9°F 73% 30.40 in 10.0 miles NW 11.5 mph - N/A   Clear
8:54 PM 36.0°F 27.0°F 70% 30.41 in 10.0 miles NNW 8.1 mph - N/A   Clear
9:54 PM 35.1°F 23.0°F 61% 30.43 in 10.0 miles North 11.5 mph - N/A   Clear
10:54 PM 33.1°F 19.9°F 59% 30.44 in 10.0 miles North 10.4 mph - N/A   Clear
11:54 PM 30.9°F 18.0°F 59% 30.45 in 10.0 miles North 10.4 mph - N/A   Clear
Astronomy
Sunrise:07:05 AM (CST) Moon Rise:09:03 AM (CST)11/15
Sunset:04:43 PM (CST) Moon Set:06:33 PM (CST)11/15
Moon Phase
Nov. 15 Nov. 20 Nov. 28 Dec. 06 Dec. 13

Copyright © 2015 The Weather Underground, Inc.